User: anonymous   Login
Location: Unspecified
(0.0000°N, 0.0000°E)
Time: 22:37:45
(UTC+02:00)
Language:

Meteor 2-8 Rocket - Orbit

View from above orbital plane
View from above orbital plane
View from above satellite
View from above satellite

Ground track
Ground track

The orbit data is extracted from the following two-line orbital elements,

1 13114U 82025B   16241.13449478  .00000029  00000-0  13127-4 0  9990
2 13114  82.5367  75.9553 0013284 251.9018 247.8143 13.84655240739850
Epoch (UTC): 28 August 2016 03:13:40
Eccentricity: 0.0013284
inclination: 82.5367°
perigee height: 937 km
apogee height: 957 km
right ascension of ascending node: 75.9553°
argument of perigee: 251.9018°
revolutions per day: 13.84655240
mean anomaly at epoch: 247.8143°
orbit number at epoch: 73985

The dashed part of the orbit path shows where the satellite is in the earth's shadow,  

DLR